Location: *
(2.5500°S, 65.9667°W)
Time: 07:36:56
(UTC+00:00)

Tiros 1 despin weight - Pass Details

Date: 18 April 2024
Orbit: 578 x 621 km, 48.2° (Epoch: 27 May)

Event Time Altitude Azimuth Distance (km) Brightness Sun altitude
Rises 02:03:03 0° 344° (NNW) 2,875 - -54.2°
Reaches altitude 10° 02:05:45 10° 359° (N) 1,970 - -54.9°
Maximum altitude 02:09:19 23° 51° (NE) 1,321 - -55.7°
Drops below altitude 10° 02:12:53 10° 103° (ESE) 1,963 - -56.6°
Sets 02:15:34 0° 118° (ESE) 2,863 - -57.2°
